Location: Poughquag
(41.6090°N, 73.6820°W)
Time: 17:49:00
(UTC-04:00)

ISS - Visible Passes

Search period start: 25 April 2018 00:00
Search period end: 05 May 2018 00:00
Orbit: 403 x 406 km, 51.6° (Epoch: 26 April)

Date Brightness Start Highest point End Pass type
(mag) Time Alt. Az. Time Alt. Az. Time Alt. Az.
02 May -2.0 04:38:16 12° S 04:40:34 23° SE 04:43:15 10° E visible
03 May -1.3 03:48:05 12° SE 03:48:26 13° SE 03:49:55 10° ESE visible
04 May -3.5 04:30:28 24° SSW 04:32:10 57° SE 04:35:23 10° ENE visible
